Location: Asheville, NC
(35.6000°N, 82.5500°W)
Time: 11:39:33
(UTC-04:00)

Vanguard 3 - Pass Details

Date: 09 February 2018
Orbit: 507 x 3264 km, 33.4° (Epoch: 23 May)

Event Time Altitude Azimuth Distance (km) Brightness Sun altitude
Rises 17:41:15 0° 211° (SSW) 2,585 10.7 4.0°
Reaches altitude 10° 17:43:58 10° 188° (S) 1,726 9.3 3.4°
Maximum altitude 17:46:21 16° 148° (SSE) 1,473 8.4 3.0°
Drops below altitude 10° 17:49:02 10° 108° (ESE) 1,994 8.7 2.5°
Sets 17:52:33 0° 88° (E) 3,236 9.6 1.8°
